Time,TemperatureF,DewpointF,PressureIn,WindDirection,WindDirectionDegrees,WindSpeedMPH,WindSpeedGustMPH,Humidity,HourlyPrecipIn,Conditions,Clouds,dailyrainin,SoftwareType,DateUTC
2013-10-29 00:01:00,23.3,20.8,30.49,ESE,116,1.0,1.0,90,0.00,,CLR,0.00,VWS V14.01,2013-10-29 04:01:00,
2013-10-29 00:02:00,23.3,20.8,30.49,ESE,116,1.0,1.0,90,0.00,,CLR,0.00,VWS V14.01,2013-10-29 04:02:00,
2013-10-29 00:03:00,23.2,20.7,30.49,ESE,116,1.0,1.0,90,0.00,,CLR,0.00,VWS V14.01,2013-10-29 04:03:00,
2013-10-29 00:08:00,23.1,20.6,30.49,ESE,116,1.0,1.0,90,0.00,,CLR,0.00,VWS V14.01,2013-10-29 04:08:00,
2013-10-29 00:13:00,23.1,20.6,30.49,ESE,116,0.0,0.0,90,0.00,,CLR,0.00,VWS V14.01,2013-10-29 04:13:00,
2013-10-29 00:18:00,23.0,20.8,30.49,ESE,116,1.0,1.0,91,0.00,,CLR,0.00,VWS V14.01,2013-10-29 04:18:00,
2013-10-29 00:23:00,22.9,20.7,30.49,ESE,116,1.0,1.0,91,0.00,,CLR,0.00,VWS V14.01,2013-10-29 04:23:00,
2013-10-29 00:28:00,22.9,20.7,30.49,ESE,118,1.0,2.0,91,0.00,,CLR,0.00,VWS V14.01,2013-10-29 04:28:00,
2013-10-29 00:33:00,22.7,20.5,30.49,ESE,118,1.0,2.0,91,0.00,,CLR,0.00,VWS V14.01,2013-10-29 04:33:00,
2013-10-29 00:38:00,22.7,20.5,30.49,ESE,119,1.0,1.0,91,0.00,,CLR,0.00,VWS V14.01,2013-10-29 04:38:00,
2013-10-29 00:43:00,22.7,20.5,30.49,ESE,119,2.0,2.0,91,0.00,,CLR,0.00,VWS V14.01,2013-10-29 04:43:00,
2013-10-29 00:48:00,22.6,20.4,30.49,ESE,119,0.0,1.0,91,0.00,,CLR,0.00,VWS V14.01,2013-10-29 04:48:00,
2013-10-29 00:53:00,22.5,20.3,30.49,ESE,119,0.0,0.0,91,0.00,,CLR,0.00,VWS V14.01,2013-10-29 04:53:00,
2013-10-29 00:58:00,22.4,20.2,30.49,ESE,119,0.0,0.0,91,0.00,,CLR,0.00,VWS V14.01,2013-10-29 04:58:00,
2013-10-29 01:03:00,22.4,20.2,30.49,ESE,119,1.0,1.0,91,0.00,,CLR,0.00,VWS V14.01,2013-10-29 05:03:00,
2013-10-29 01:08:00,22.2,20.0,30.49,ESE,119,0.0,1.0,91,0.00,,CLR,0.00,VWS V14.01,2013-10-29 05:08:00,
2013-10-29 01:13:00,22.1,19.9,30.49,ESE,119,1.0,2.0,91,0.00,,CLR,0.00,VWS V14.01,2013-10-29 05:13:00,
2013-10-29 01:18:00,22.0,19.8,30.49,ESE,119,0.0,0.0,91,0.00,,CLR,0.00,VWS V14.01,2013-10-29 05:18:00,
2013-10-29 01:23:00,22.0,19.8,30.49,ESE,120,0.0,1.0,91,0.00,,CLR,0.00,VWS V14.01,2013-10-29 05:23:00,
2013-10-29 01:28:00,21.9,19.7,30.49,ESE,120,1.0,1.0,91,0.00,,CLR,0.00,VWS V14.01,2013-10-29 05:28:00,
2013-10-29 01:33:00,21.8,19.6,30.50,ESE,120,0.0,1.0,91,0.00,,CLR,0.00,VWS V14.01,2013-10-29 05:33:00,
2013-10-29 01:38:00,21.7,19.5,30.49,ESE,120,1.0,1.0,91,0.00,,CLR,0.00,VWS V14.01,2013-10-29 05:38:00,
2013-10-29 01:43:00,21.7,19.5,30.49,ESE,119,0.0,1.0,91,0.00,,CLR,0.00,VWS V14.01,2013-10-29 05:43:00,
2013-10-29 01:48:00,21.6,19.4,30.50,ESE,120,0.0,1.0,91,0.00,,CLR,0.00,VWS V14.01,2013-10-29 05:48:00,
2013-10-29 01:53:00,21.6,19.4,30.50,ESE,120,2.0,2.0,91,0.00,,CLR,0.00,VWS V14.01,2013-10-29 05:53:00,
2013-10-29 01:58:00,21.5,19.3,30.50,ESE,121,0.0,1.0,91,0.00,,CLR,0.00,VWS V14.01,2013-10-29 05:58:00,
2013-10-29 02:03:00,21.3,19.1,30.50,ESE,121,0.0,1.0,91,0.00,,CLR,0.00,VWS V14.01,2013-10-29 06:03:00,
2013-10-29 02:08:00,21.1,18.9,30.50,ESE,121,2.0,2.0,91,0.00,,CLR,0.00,VWS V14.01,2013-10-29 06:08:00,
2013-10-29 02:13:00,21.0,18.8,30.50,ESE,121,1.0,1.0,91,0.00,,CLR,0.00,VWS V14.01,2013-10-29 06:13:00,
2013-10-29 02:18:00,20.7,18.2,30.50,ESE,121,1.0,2.0,90,0.00,,CLR,0.00,VWS V14.01,2013-10-29 06:18:00,
2013-10-29 02:24:00,20.5,18.0,30.50,ESE,121,0.0,1.0,90,0.00,,CLR,0.00,VWS V14.01,2013-10-29 06:24:00,
2013-10-29 02:29:00,20.5,18.3,30.50,ESE,121,2.0,2.0,91,0.00,,CLR,0.00,VWS V14.01,2013-10-29 06:29:00,
2013-10-29 02:34:00,20.4,18.2,30.50,ESE,119,2.0,2.0,91,0.00,,CLR,0.00,VWS V14.01,2013-10-29 06:34:00,
2013-10-29 02:39:00,20.4,18.5,30.50,ESE,119,2.0,2.0,92,0.00,,CLR,0.00,VWS V14.01,2013-10-29 06:39:00,
2013-10-29 02:44:00,20.4,18.5,30.50,ESE,119,1.0,2.0,92,0.00,,CLR,0.00,VWS V14.01,2013-10-29 06:44:00,
2013-10-29 02:49:00,20.3,18.4,30.50,ESE,123,2.0,2.0,92,0.00,,CLR,0.00,VWS V14.01,2013-10-29 06:49:00,
2013-10-29 02:54:00,20.3,18.4,30.50,SE,126,1.0,2.0,92,0.00,,CLR,0.00,VWS V14.01,2013-10-29 06:54:00,
2013-10-29 02:59:00,20.4,18.5,30.50,SE,126,1.0,1.0,92,0.00,,CLR,0.00,VWS V14.01,2013-10-29 06:59:00,
2013-10-29 03:04:00,20.1,17.9,30.50,SE,126,1.0,1.0,91,0.00,,CLR,0.00,VWS V14.01,2013-10-29 07:04:00,
2013-10-29 03:09:00,19.9,17.7,30.50,SE,126,1.0,2.0,91,0.00,,CLR,0.00,VWS V14.01,2013-10-29 07:09:00,
2013-10-29 03:14:00,19.8,17.6,30.50,SE,126,1.0,2.0,91,0.00,,CLR,0.00,VWS V14.01,2013-10-29 07:14:00,
2013-10-29 03:19:00,19.7,17.5,30.50,SE,126,2.0,2.0,91,0.00,,CLR,0.00,VWS V14.01,2013-10-29 07:19:00,
2013-10-29 03:24:00,19.8,17.9,30.50,ESE,121,2.0,2.0,92,0.00,,CLR,0.00,VWS V14.01,2013-10-29 07:24:00,
2013-10-29 03:29:00,19.9,18.0,30.50,ESE,118,3.0,3.0,92,0.00,,CLR,0.00,VWS V14.01,2013-10-29 07:29:00,
2013-10-29 03:34:00,20.0,18.0,30.50,ESE,115,2.0,2.0,92,0.00,,CLR,0.00,VWS V14.01,2013-10-29 07:34:00,
2013-10-29 03:39:00,20.1,18.1,30.50,ESE,115,1.0,2.0,92,0.00,,CLR,0.00,VWS V14.01,2013-10-29 07:39:00,
2013-10-29 03:44:00,20.2,18.5,30.50,ESE,115,2.0,2.0,93,0.00,,CLR,0.00,VWS V14.01,2013-10-29 07:44:00,
2013-10-29 03:49:00,20.3,18.6,30.50,ESE,115,1.0,1.0,93,0.00,,CLR,0.00,VWS V14.01,2013-10-29 07:49:00,
2013-10-29 03:54:00,20.4,18.7,30.50,ESE,115,1.0,1.0,93,0.00,,CLR,0.00,VWS V14.01,2013-10-29 07:54:00,
2013-10-29 03:59:00,20.4,18.7,30.50,ESE,115,1.0,1.0,93,0.00,,CLR,0.00,VWS V14.01,2013-10-29 07:59:00,
2013-10-29 04:04:00,20.5,18.8,30.50,ESE,115,2.0,2.0,93,0.00,,CLR,0.00,VWS V14.01,2013-10-29 08:04:00,
2013-10-29 04:09:00,20.5,18.8,30.50,ESE,115,2.0,2.0,93,0.00,,CLR,0.00,VWS V14.01,2013-10-29 08:09:00,
2013-10-29 04:14:00,20.6,18.9,30.49,ESE,113,2.0,2.0,93,0.00,,CLR,0.00,VWS V14.01,2013-10-29 08:14:00,
2013-10-29 04:19:00,20.6,18.6,30.49,ESE,113,2.0,2.0,92,0.00,,CLR,0.00,VWS V14.01,2013-10-29 08:19:00,
2013-10-29 04:24:00,20.6,18.6,30.49,ESE,113,1.0,2.0,92,0.00,,CLR,0.00,VWS V14.01,2013-10-29 08:24:00,
2013-10-29 04:29:00,20.6,18.6,30.49,ESE,113,1.0,2.0,92,0.00,,CLR,0.00,VWS V14.01,2013-10-29 08:29:00,
2013-10-29 04:34:00,20.6,18.6,30.49,ESE,113,1.0,2.0,92,0.00,,CLR,0.00,VWS V14.01,2013-10-29 08:34:00,
2013-10-29 04:39:00,20.7,18.8,30.49,ESE,113,2.0,2.0,92,0.00,,CLR,0.00,VWS V14.01,2013-10-29 08:39:00,
2013-10-29 04:44:00,20.7,18.8,30.49,ESE,113,1.0,1.0,92,0.00,,CLR,0.00,VWS V14.01,2013-10-29 08:44:00,
2013-10-29 04:49:00,20.7,18.8,30.49,ESE,113,1.0,2.0,92,0.00,,CLR,0.00,VWS V14.01,2013-10-29 08:49:00,
2013-10-29 04:54:00,20.7,18.8,30.49,ESE,113,1.0,1.0,92,0.00,,CLR,0.00,VWS V14.01,2013-10-29 08:54:00,
2013-10-29 04:59:00,20.7,18.8,30.49,ESE,119,1.0,2.0,92,0.00,,CLR,0.00,VWS V14.01,2013-10-29 08:59:00,
2013-10-29 05:04:00,20.8,18.9,30.49,ESE,119,0.0,1.0,92,0.00,,CLR,0.00,VWS V14.01,2013-10-29 09:04:00,
2013-10-29 05:09:00,20.7,18.8,30.49,ESE,119,1.0,2.0,92,0.00,,CLR,0.00,VWS V14.01,2013-10-29 09:09:00,
2013-10-29 05:14:00,20.7,18.8,30.49,ESE,122,1.0,2.0,92,0.00,,CLR,0.00,VWS V14.01,2013-10-29 09:14:00,
2013-10-29 05:19:00,20.7,18.8,30.49,ESE,120,1.0,1.0,92,0.00,,CLR,0.00,VWS V14.01,2013-10-29 09:19:00,
2013-10-29 05:24:00,20.7,18.8,30.48,ESE,120,1.0,2.0,92,0.00,,CLR,0.00,VWS V14.01,2013-10-29 09:24:00,
2013-10-29 05:30:00,20.8,19.1,30.49,SE,126,1.0,2.0,93,0.00,,CLR,0.00,VWS V14.01,2013-10-29 09:30:00,
2013-10-29 05:35:00,20.8,18.9,30.49,SE,125,1.0,1.0,92,0.00,,CLR,0.00,VWS V14.01,2013-10-29 09:35:00,
2013-10-29 05:40:00,20.7,18.8,30.49,SE,125,0.0,0.0,92,0.00,,CLR,0.00,VWS V14.01,2013-10-29 09:40:00,
2013-10-29 05:45:00,20.6,18.6,30.48,SE,125,0.0,1.0,92,0.00,,CLR,0.00,VWS V14.01,2013-10-29 09:45:00,
2013-10-29 05:50:00,20.6,18.6,30.48,SE,125,0.0,1.0,92,0.00,,CLR,0.00,VWS V14.01,2013-10-29 09:50:00,
2013-10-29 05:55:00,20.7,18.8,30.48,ESE,123,2.0,2.0,92,0.00,,CLR,0.00,VWS V14.01,2013-10-29 09:55:00,
2013-10-29 06:00:00,20.8,19.1,30.49,ESE,113,2.0,2.0,93,0.00,,CLR,0.00,VWS V14.01,2013-10-29 10:00:00,
2013-10-29 06:05:00,21.1,19.4,30.49,ESE,118,1.0,2.0,93,0.00,,CLR,0.00,VWS V14.01,2013-10-29 10:05:00,
2013-10-29 06:10:00,21.4,19.7,30.49,SE,131,0.0,1.0,93,0.00,,CLR,0.00,VWS V14.01,2013-10-29 10:10:00,
2013-10-29 06:15:00,21.6,19.9,30.49,SE,131,0.0,0.0,93,0.00,,CLR,0.00,VWS V14.01,2013-10-29 10:15:00,
2013-10-29 06:20:00,21.6,20.1,30.50,SE,131,0.0,0.0,94,0.00,,CLR,0.00,VWS V14.01,2013-10-29 10:20:00,
2013-10-29 06:25:00,21.9,20.4,30.50,SE,131,1.0,2.0,94,0.00,,CLR,0.00,VWS V14.01,2013-10-29 10:25:00,
2013-10-29 06:30:00,22.1,20.6,30.50,SE,131,1.0,1.0,94,0.00,,CLR,0.00,VWS V14.01,2013-10-29 10:30:00,
2013-10-29 06:35:00,22.3,20.8,30.50,SE,131,0.0,0.0,94,0.00,,CLR,0.00,VWS V14.01,2013-10-29 10:35:00,
2013-10-29 06:40:00,22.5,21.0,30.49,SSE,166,1.0,2.0,94,0.00,,CLR,0.00,VWS V14.01,2013-10-29 10:40:00,
2013-10-29 06:45:00,22.8,21.3,30.49,SSE,157,1.0,1.0,94,0.00,,CLR,0.00,VWS V14.01,2013-10-29 10:45:00,
2013-10-29 06:50:00,23.0,21.5,30.49,ESE,106,1.0,2.0,94,0.00,,CLR,0.00,VWS V14.01,2013-10-29 10:50:00,
2013-10-29 06:55:00,23.1,21.6,30.49,ESE,106,1.0,1.0,94,0.00,,CLR,0.00,VWS V14.01,2013-10-29 10:55:00,
2013-10-29 07:00:00,23.3,21.8,30.49,ESE,106,1.0,2.0,94,0.00,,CLR,0.00,VWS V14.01,2013-10-29 11:00:00,
2013-10-29 07:05:00,23.4,21.9,30.49,ESE,106,0.0,0.0,94,0.00,,CLR,0.00,VWS V14.01,2013-10-29 11:05:00,
2013-10-29 07:10:00,23.5,22.0,30.49,ESE,106,0.0,1.0,94,0.00,,CLR,0.00,VWS V14.01,2013-10-29 11:10:00,
2013-10-29 07:15:00,23.6,21.9,30.49,ESE,106,1.0,1.0,93,0.00,,CLR,0.00,VWS V14.01,2013-10-29 11:15:00,
2013-10-29 07:20:00,23.6,21.9,30.49,SE,136,2.0,2.0,93,0.00,,CLR,0.00,VWS V14.01,2013-10-29 11:20:00,
2013-10-29 07:25:00,23.7,22.0,30.48,SE,140,1.0,2.0,93,0.00,,CLR,0.00,VWS V14.01,2013-10-29 11:25:00,
2013-10-29 07:30:00,23.8,22.1,30.48,SE,137,0.0,0.0,93,0.00,,CLR,0.00,VWS V14.01,2013-10-29 11:30:00,
2013-10-29 07:35:00,23.8,22.1,30.48,ESE,116,1.0,2.0,93,0.00,,CLR,0.00,VWS V14.01,2013-10-29 11:35:00,
2013-10-29 07:40:00,23.9,22.2,30.48,ESE,116,1.0,1.0,93,0.00,,CLR,0.00,VWS V14.01,2013-10-29 11:40:00,
2013-10-29 07:45:00,23.9,22.2,30.48,ESE,116,0.0,0.0,93,0.00,,CLR,0.00,VWS V14.01,2013-10-29 11:45:00,
2013-10-29 07:50:00,24.0,22.3,30.48,ESE,116,0.0,0.0,93,0.00,,CLR,0.00,VWS V14.01,2013-10-29 11:50:00,
2013-10-29 07:55:00,23.9,22.2,30.48,ESE,116,0.0,1.0,93,0.00,,CLR,0.00,VWS V14.01,2013-10-29 11:55:00,
2013-10-29 08:00:00,23.9,21.9,30.48,SSW,200,1.0,1.0,92,0.00,,CLR,0.00,VWS V14.01,2013-10-29 12:00:00,
2013-10-29 08:05:00,23.8,21.8,30.48,South,177,1.0,1.0,92,0.00,,CLR,0.00,VWS V14.01,2013-10-29 12:05:00,
2013-10-29 08:10:00,23.5,21.5,30.48,ESE,105,0.0,1.0,92,0.00,,CLR,0.00,VWS V14.01,2013-10-29 12:10:00,
2013-10-29 08:15:00,23.4,21.4,30.49,ESE,105,0.0,1.0,92,0.00,,CLR,0.00,VWS V14.01,2013-10-29 12:15:00,
2013-10-29 08:20:00,23.3,21.3,30.49,ESE,110,1.0,2.0,92,0.00,,CLR,0.00,VWS V14.01,2013-10-29 12:20:00,
2013-10-29 08:25:00,23.2,21.2,30.49,ESE,110,0.0,0.0,92,0.00,,CLR,0.00,VWS V14.01,2013-10-29 12:25:00,
2013-10-29 08:30:00,23.1,21.1,30.48,ESE,107,1.0,2.0,92,0.00,,CLR,0.00,VWS V14.01,2013-10-29 12:30:00,
2013-10-29 08:35:00,23.1,21.1,30.49,ESE,107,0.0,1.0,92,0.00,,CLR,0.00,VWS V14.01,2013-10-29 12:35:00,
2013-10-29 08:40:00,23.1,21.1,30.49,ESE,107,1.0,1.0,92,0.00,,CLR,0.00,VWS V14.01,2013-10-29 12:40:00,
2013-10-29 08:45:00,23.2,21.2,30.49,ESE,114,0.0,1.0,92,0.00,,CLR,0.00,VWS V14.01,2013-10-29 12:45:00,
2013-10-29 08:51:00,23.4,21.7,30.49,East,94,1.0,2.0,93,0.00,,CLR,0.00,VWS V14.01,2013-10-29 12:51:00,
2013-10-29 08:56:00,23.3,21.3,30.49,ENE,64,0.0,0.0,92,0.00,,CLR,0.00,VWS V14.01,2013-10-29 12:56:00,
2013-10-29 09:01:00,23.5,21.8,30.49,East,80,1.0,1.0,93,0.00,,CLR,0.00,VWS V14.01,2013-10-29 13:01:00,
2013-10-29 09:06:00,23.8,22.1,30.50,SSW,211,1.0,3.0,93,0.00,,CLR,0.00,VWS V14.01,2013-10-29 13:06:00,
2013-10-29 09:11:00,24.2,22.5,30.50,SSW,210,1.0,2.0,93,0.00,,CLR,0.00,VWS V14.01,2013-10-29 13:11:00,
2013-10-29 09:16:00,24.4,22.7,30.50,SSW,208,0.0,1.0,93,0.00,,CLR,0.00,VWS V14.01,2013-10-29 13:16:00,
2013-10-29 09:21:00,24.6,22.9,30.50,SSW,208,1.0,1.0,93,0.00,,CLR,0.00,VWS V14.01,2013-10-29 13:21:00,
2013-10-29 09:26:00,24.8,23.1,30.50,South,169,1.0,1.0,93,0.00,,CLR,0.00,VWS V14.01,2013-10-29 13:26:00,
2013-10-29 09:31:00,25.1,23.4,30.51,South,169,1.0,1.0,93,0.00,,CLR,0.00,VWS V14.01,2013-10-29 13:31:00,
2013-10-29 09:36:00,25.3,23.6,30.50,South,169,1.0,3.0,93,0.00,,CLR,0.00,VWS V14.01,2013-10-29 13:36:00,
2013-10-29 09:41:00,25.6,23.9,30.50,South,169,1.0,1.0,93,0.00,,CLR,0.00,VWS V14.01,2013-10-29 13:41:00,
2013-10-29 09:46:00,26.1,24.6,30.50,ESE,104,1.0,2.0,94,0.00,,CLR,0.00,VWS V14.01,2013-10-29 13:46:00,
2013-10-29 09:51:00,26.7,25.2,30.50,ESE,104,0.0,1.0,94,0.00,,CLR,0.00,VWS V14.01,2013-10-29 13:51:00,
2013-10-29 09:56:00,27.2,25.7,30.49,ESE,104,0.0,1.0,94,0.00,,CLR,0.00,VWS V14.01,2013-10-29 13:56:00,
2013-10-29 10:01:00,27.6,26.1,30.50,ESE,104,0.0,1.0,94,0.00,,CLR,0.00,VWS V14.01,2013-10-29 14:01:00,
2013-10-29 10:06:00,28.2,26.7,30.49,ESE,104,1.0,1.0,94,0.00,,CLR,0.00,VWS V14.01,2013-10-29 14:06:00,
2013-10-29 10:11:00,28.8,27.0,30.49,ESE,104,1.0,1.0,93,0.00,,CLR,0.00,VWS V14.01,2013-10-29 14:11:00,
2013-10-29 10:16:00,29.4,27.6,30.49,ESE,104,0.0,0.0,93,0.00,,CLR,0.00,VWS V14.01,2013-10-29 14:16:00,
2013-10-29 10:21:00,29.8,28.0,30.49,ESE,104,0.0,0.0,93,0.00,,CLR,0.00,VWS V14.01,2013-10-29 14:21:00,
2013-10-29 10:26:00,30.1,28.1,30.49,ESE,114,1.0,2.0,92,0.00,,CLR,0.00,VWS V14.01,2013-10-29 14:26:00,
2013-10-29 10:31:00,30.5,27.9,30.49,ESE,114,0.0,0.0,90,0.00,,CLR,0.00,VWS V14.01,2013-10-29 14:31:00,
2013-10-29 10:36:00,30.8,28.2,30.49,ESE,114,0.0,0.0,90,0.00,,CLR,0.00,VWS V14.01,2013-10-29 14:36:00,
2013-10-29 10:41:00,31.2,28.3,30.48,ESE,115,1.0,2.0,89,0.00,,CLR,0.00,VWS V14.01,2013-10-29 14:41:00,
2013-10-29 10:46:00,31.5,28.4,30.48,ESE,119,2.0,2.0,88,0.00,,CLR,0.00,VWS V14.01,2013-10-29 14:46:00,
2013-10-29 10:51:00,31.9,28.5,30.48,SE,135,2.0,2.0,87,0.00,,CLR,0.00,VWS V14.01,2013-10-29 14:51:00,
2013-10-29 10:56:00,32.2,28.5,30.48,ESE,120,3.0,3.0,86,0.00,,CLR,0.00,VWS V14.01,2013-10-29 14:56:00,
2013-10-29 11:01:00,32.5,27.9,30.48,SE,129,3.0,3.0,83,0.00,,CLR,0.00,VWS V14.01,2013-10-29 15:01:00,
2013-10-29 11:06:00,32.8,27.3,30.49,SE,144,5.0,6.0,80,0.00,,CLR,0.00,VWS V14.01,2013-10-29 15:06:00,
2013-10-29 11:11:00,32.9,26.8,30.49,SSE,148,3.0,3.0,78,0.00,,CLR,0.00,VWS V14.01,2013-10-29 15:11:00,
2013-10-29 11:16:00,33.1,27.0,30.49,SE,126,5.0,6.0,78,0.00,,CLR,0.00,VWS V14.01,2013-10-29 15:16:00,
2013-10-29 11:21:00,33.3,27.5,30.48,SE,140,3.0,4.0,79,0.00,,CLR,0.00,VWS V14.01,2013-10-29 15:21:00,
2013-10-29 11:26:00,33.5,27.7,30.48,ESE,119,7.0,7.0,79,0.00,,CLR,0.00,VWS V14.01,2013-10-29 15:26:00,
2013-10-29 11:31:00,33.5,26.4,30.48,SE,131,4.0,6.0,75,0.00,,CLR,0.00,VWS V14.01,2013-10-29 15:31:00,
2013-10-29 11:36:00,33.6,26.9,30.48,SSE,150,4.0,4.0,76,0.00,,CLR,0.00,VWS V14.01,2013-10-29 15:36:00,
2013-10-29 11:42:00,33.8,27.4,30.48,SE,138,4.0,4.0,77,0.00,,CLR,0.00,VWS V14.01,2013-10-29 15:42:00,
2013-10-29 11:47:00,34.0,27.2,30.48,SSW,193,2.0,5.0,76,0.00,,CLR,0.00,VWS V14.01,2013-10-29 15:47:00,
2013-10-29 11:52:00,34.2,27.1,30.48,SE,127,3.0,3.0,75,0.00,,CLR,0.00,VWS V14.01,2013-10-29 15:52:00,
2013-10-29 11:57:00,34.3,27.2,30.47,SE,144,4.0,5.0,75,0.00,,CLR,0.00,VWS V14.01,2013-10-29 15:57:00,
2013-10-29 12:02:00,34.5,27.1,30.47,South,183,0.0,1.0,74,0.00,,CLR,0.00,VWS V14.01,2013-10-29 16:02:00,
2013-10-29 12:07:00,34.8,27.0,30.47,SE,141,8.0,8.0,73,0.00,,CLR,0.00,VWS V14.01,2013-10-29 16:07:00,
2013-10-29 12:12:00,34.9,27.1,30.47,South,185,4.0,7.0,73,0.00,,CLR,0.00,VWS V14.01,2013-10-29 16:12:00,
2013-10-29 12:17:00,34.9,26.5,30.47,SE,136,5.0,8.0,71,0.00,,CLR,0.00,VWS V14.01,2013-10-29 16:17:00,
2013-10-29 12:22:00,35.1,27.0,30.46,ESE,122,5.0,7.0,72,0.00,,CLR,0.00,VWS V14.01,2013-10-29 16:22:00,
2013-10-29 12:27:00,35.3,26.5,30.46,SSE,152,5.0,5.0,70,0.00,,CLR,0.00,VWS V14.01,2013-10-29 16:27:00,
2013-10-29 12:32:00,35.4,26.6,30.46,SSE,159,6.0,9.0,70,0.00,,CLR,0.00,VWS V14.01,2013-10-29 16:32:00,
2013-10-29 12:37:00,35.6,27.1,30.46,SSW,198,3.0,5.0,71,0.00,,CLR,0.00,VWS V14.01,2013-10-29 16:37:00,
2013-10-29 12:42:00,36.0,27.5,30.45,ESE,122,7.0,7.0,71,0.00,,CLR,0.00,VWS V14.01,2013-10-29 16:42:00,
2013-10-29 12:47:00,36.3,27.5,30.45,SSW,209,1.0,5.0,70,0.00,,CLR,0.00,VWS V14.01,2013-10-29 16:47:00,
2013-10-29 12:52:00,36.5,27.3,30.45,SE,143,5.0,5.0,69,0.00,,CLR,0.00,VWS V14.01,2013-10-29 16:52:00,
2013-10-29 12:57:00,36.7,26.4,30.45,ESE,121,7.0,7.0,66,0.00,,CLR,0.00,VWS V14.01,2013-10-29 16:57:00,
2013-10-29 13:02:00,36.9,27.0,30.45,SSE,158,5.0,7.0,67,0.00,,CLR,0.00,VWS V14.01,2013-10-29 17:02:00,
2013-10-29 13:07:00,37.2,26.9,30.44,ESE,120,6.0,7.0,66,0.00,,CLR,0.00,VWS V14.01,2013-10-29 17:07:00,
2013-10-29 13:12:00,37.3,26.6,30.44,South,177,1.0,4.0,65,0.00,,CLR,0.00,VWS V14.01,2013-10-29 17:12:00,
2013-10-29 13:17:00,37.5,27.2,30.44,South,172,4.0,6.0,66,0.00,,CLR,0.00,VWS V14.01,2013-10-29 17:17:00,
2013-10-29 13:22:00,37.4,26.4,30.43,SE,125,9.0,9.0,64,0.00,,CLR,0.00,VWS V14.01,2013-10-29 17:22:00,
2013-10-29 13:27:00,37.3,25.9,30.43,South,189,2.0,4.0,63,0.00,,CLR,0.00,VWS V14.01,2013-10-29 17:27:00,
2013-10-29 13:32:00,37.1,25.7,30.43,ESE,120,1.0,2.0,63,0.00,,CLR,0.00,VWS V14.01,2013-10-29 17:32:00,
2013-10-29 13:37:00,37.1,26.4,30.43,SE,130,2.0,4.0,65,0.00,,CLR,0.00,VWS V14.01,2013-10-29 17:37:00,
2013-10-29 13:42:00,37.3,27.0,30.42,South,180,1.0,2.0,66,0.00,,CLR,0.00,VWS V14.01,2013-10-29 17:42:00,
2013-10-29 13:47:00,37.5,26.5,30.42,East,92,2.0,3.0,64,0.00,,CLR,0.00,VWS V14.01,2013-10-29 17:47:00,
2013-10-29 13:52:00,37.4,26.4,30.42,SE,137,2.0,3.0,64,0.00,,CLR,0.00,VWS V14.01,2013-10-29 17:52:00,
2013-10-29 13:57:00,37.7,27.0,30.41,WSW,237,4.0,6.0,65,0.00,,CLR,0.00,VWS V14.01,2013-10-29 17:57:00,
2013-10-29 14:02:00,37.8,26.7,30.42,SW,219,4.0,7.0,64,0.00,,CLR,0.00,VWS V14.01,2013-10-29 18:02:00,
2013-10-29 14:07:00,37.8,26.7,30.42,SW,231,2.0,2.0,64,0.00,,CLR,0.00,VWS V14.01,2013-10-29 18:07:00,
2013-10-29 14:12:00,37.9,26.1,30.41,SW,236,2.0,2.0,62,0.00,,CLR,0.00,VWS V14.01,2013-10-29 18:12:00,
2013-10-29 14:17:00,37.9,26.1,30.42,WSW,240,1.0,3.0,62,0.00,,CLR,0.00,VWS V14.01,2013-10-29 18:17:00,
2013-10-29 14:22:00,37.8,26.0,30.41,SW,227,4.0,5.0,62,0.00,,CLR,0.00,VWS V14.01,2013-10-29 18:22:00,
2013-10-29 14:27:00,37.7,25.9,30.41,SW,225,1.0,2.0,62,0.00,,CLR,0.00,VWS V14.01,2013-10-29 18:27:00,
2013-10-29 14:32:00,37.7,26.6,30.41,WSW,240,4.0,5.0,64,0.00,,CLR,0.00,VWS V14.01,2013-10-29 18:32:00,
2013-10-29 14:37:00,37.7,26.3,30.41,SW,221,1.0,2.0,63,0.00,,CLR,0.00,VWS V14.01,2013-10-29 18:37:00,
2013-10-29 14:42:00,37.8,26.4,30.41,WSW,250,4.0,4.0,63,0.00,,CLR,0.00,VWS V14.01,2013-10-29 18:42:00,
2013-10-29 14:47:00,37.7,26.3,30.40,SSW,204,1.0,2.0,63,0.00,,CLR,0.00,VWS V14.01,2013-10-29 18:47:00,
2013-10-29 14:52:00,37.8,26.4,30.40,SW,227,4.0,4.0,63,0.00,,CLR,0.00,VWS V14.01,2013-10-29 18:52:00,
2013-10-29 14:57:00,37.7,26.6,30.40,SW,221,4.0,4.0,64,0.00,,CLR,0.00,VWS V14.01,2013-10-29 18:57:00,
2013-10-29 15:02:00,37.8,26.7,30.40,SW,215,3.0,5.0,64,0.00,,CLR,0.00,VWS V14.01,2013-10-29 19:02:00,
2013-10-29 15:07:00,37.8,26.4,30.39,SE,124,2.0,3.0,63,0.00,,CLR,0.00,VWS V14.01,2013-10-29 19:07:00,
2013-10-29 15:12:00,37.7,26.3,30.39,SW,231,3.0,4.0,63,0.00,,CLR,0.00,VWS V14.01,2013-10-29 19:12:00,
2013-10-29 15:17:00,37.8,26.7,30.39,SW,221,1.0,1.0,64,0.00,,CLR,0.00,VWS V14.01,2013-10-29 19:17:00,
2013-10-29 15:22:00,37.9,26.5,30.39,South,174,3.0,4.0,63,0.00,,CLR,0.00,VWS V14.01,2013-10-29 19:22:00,
2013-10-29 15:27:00,37.9,26.5,30.39,SW,216,2.0,3.0,63,0.00,,CLR,0.00,VWS V14.01,2013-10-29 19:27:00,
2013-10-29 15:32:00,37.9,26.8,30.39,WSW,256,0.0,1.0,64,0.00,,CLR,0.00,VWS V14.01,2013-10-29 19:32:00,
2013-10-29 15:37:00,37.9,27.2,30.39,South,171,1.0,2.0,65,0.00,,CLR,0.00,VWS V14.01,2013-10-29 19:37:00,
2013-10-29 15:42:00,37.9,27.2,30.38,SW,214,3.0,3.0,65,0.00,,CLR,0.00,VWS V14.01,2013-10-29 19:42:00,
2013-10-29 15:47:00,37.9,26.8,30.38,SW,215,2.0,2.0,64,0.00,,CLR,0.00,VWS V14.01,2013-10-29 19:47:00,
2013-10-29 15:52:00,37.8,26.7,30.38,SSW,207,2.0,3.0,64,0.00,,CLR,0.00,VWS V14.01,2013-10-29 19:52:00,
2013-10-29 15:58:00,37.8,26.7,30.38,WSW,242,2.0,3.0,64,0.00,,CLR,0.00,VWS V14.01,2013-10-29 19:58:00,
2013-10-29 16:03:00,37.9,27.2,30.38,SSW,204,1.0,1.0,65,0.00,,CLR,0.00,VWS V14.01,2013-10-29 20:03:00,
2013-10-29 16:08:00,38.0,27.3,30.38,SSW,193,1.0,2.0,65,0.00,,CLR,0.00,VWS V14.01,2013-10-29 20:08:00,
2013-10-29 16:13:00,38.0,27.7,30.37,SSW,198,4.0,4.0,66,0.00,,CLR,0.00,VWS V14.01,2013-10-29 20:13:00,
2013-10-29 16:18:00,38.0,27.3,30.37,SSW,206,2.0,2.0,65,0.00,,CLR,0.00,VWS V14.01,2013-10-29 20:18:00,
2013-10-29 16:23:00,38.0,27.3,30.37,WSW,238,3.0,4.0,65,0.00,,CLR,0.00,VWS V14.01,2013-10-29 20:23:00,
2013-10-29 16:28:00,37.9,27.2,30.37,SSW,208,1.0,2.0,65,0.00,,CLR,0.00,VWS V14.01,2013-10-29 20:28:00,
2013-10-29 16:33:00,37.9,27.2,30.37,SSW,200,3.0,3.0,65,0.00,,CLR,0.00,VWS V14.01,2013-10-29 20:33:00,
2013-10-29 16:38:00,37.9,27.6,30.37,SE,141,0.0,1.0,66,0.00,,CLR,0.00,VWS V14.01,2013-10-29 20:38:00,
2013-10-29 16:43:00,37.9,27.6,30.36,SSW,208,3.0,3.0,66,0.00,,CLR,0.00,VWS V14.01,2013-10-29 20:43:00,
2013-10-29 16:48:00,37.9,27.6,30.36,SSW,206,0.0,0.0,66,0.00,,CLR,0.00,VWS V14.01,2013-10-29 20:48:00,
2013-10-29 16:53:00,37.9,27.6,30.36,SSW,203,0.0,1.0,66,0.00,,CLR,0.00,VWS V14.01,2013-10-29 20:53:00,
2013-10-29 16:58:00,37.9,27.9,30.36,South,180,1.0,1.0,67,0.00,,CLR,0.00,VWS V14.01,2013-10-29 20:58:00,
2013-10-29 17:03:00,37.9,27.9,30.35,South,189,1.0,1.0,67,0.00,,FEW038,0.00,VWS V14.01,2013-10-29 21:03:00,
2013-10-29 17:08:00,37.9,27.9,30.35,SE,130,2.0,3.0,67,0.00,,FEW038,0.00,VWS V14.01,2013-10-29 21:08:00,
2013-10-29 17:13:00,37.9,28.3,30.35,SW,215,0.0,1.0,68,0.00,,FEW038,0.00,VWS V14.01,2013-10-29 21:13:00,
2013-10-29 17:18:00,37.8,27.8,30.35,SSW,204,2.0,2.0,67,0.00,,FEW038,0.00,VWS V14.01,2013-10-29 21:18:00,
2013-10-29 17:23:00,37.8,27.8,30.35,SW,217,1.0,2.0,67,0.00,,FEW038,0.00,VWS V14.01,2013-10-29 21:23:00,
2013-10-29 17:28:00,37.7,27.8,30.35,SW,217,1.0,1.0,67,0.00,,FEW038,0.00,VWS V14.01,2013-10-29 21:28:00,
2013-10-29 17:33:00,37.7,28.1,30.34,SW,215,0.0,0.0,68,0.00,,FEW038,0.00,VWS V14.01,2013-10-29 21:33:00,
2013-10-29 17:38:00,37.7,28.1,30.34,SSW,211,1.0,1.0,68,0.00,,FEW038,0.00,VWS V14.01,2013-10-29 21:38:00,
2013-10-29 17:43:00,37.6,28.0,30.34,SSW,207,1.0,1.0,68,0.00,,FEW038,0.00,VWS V14.01,2013-10-29 21:43:00,
2013-10-29 17:48:00,37.5,28.3,30.34,SSW,207,0.0,0.0,69,0.00,,FEW038,0.00,VWS V14.01,2013-10-29 21:48:00,
2013-10-29 17:53:00,37.5,28.3,30.34,SSW,207,0.0,0.0,69,0.00,,FEW038,0.00,VWS V14.01,2013-10-29 21:53:00,
2013-10-29 17:58:00,37.5,28.3,30.34,SSW,207,0.0,0.0,69,0.00,,FEW038,0.00,VWS V14.01,2013-10-29 21:58:00,
2013-10-29 18:03:00,37.5,29.3,30.34,SSW,207,0.0,1.0,72,0.00,,OVC036,0.00,VWS V14.01,2013-10-29 22:03:00,
2013-10-29 18:08:00,37.3,28.8,30.33,SSW,207,0.0,0.0,71,0.00,,OVC036,0.00,VWS V14.01,2013-10-29 22:08:00,
2013-10-29 18:13:00,37.3,29.1,30.33,SSW,207,1.0,1.0,72,0.00,,OVC036,0.00,VWS V14.01,2013-10-29 22:13:00,
2013-10-29 18:18:00,37.2,29.0,30.33,SSE,155,1.0,1.0,72,0.00,,OVC036,0.00,VWS V14.01,2013-10-29 22:18:00,
2013-10-29 18:23:00,37.1,28.9,30.33,SE,138,2.0,2.0,72,0.00,,OVC036,0.00,VWS V14.01,2013-10-29 22:23:00,
2013-10-29 18:28:00,36.9,28.7,30.33,SSE,153,1.0,1.0,72,0.00,,OVC036,0.00,VWS V14.01,2013-10-29 22:28:00,
2013-10-29 18:33:00,36.7,28.5,30.32,SSE,157,2.0,3.0,72,0.00,,OVC036,0.00,VWS V14.01,2013-10-29 22:33:00,
2013-10-29 18:38:00,36.6,28.4,30.32,South,177,1.0,1.0,72,0.00,,OVC036,0.00,VWS V14.01,2013-10-29 22:38:00,
2013-10-29 18:43:00,36.5,28.4,30.32,SE,138,2.0,3.0,72,0.00,,OVC036,0.00,VWS V14.01,2013-10-29 22:43:00,
2013-10-29 18:48:00,36.4,28.6,30.32,SE,137,0.0,1.0,73,0.00,,OVC036,0.00,VWS V14.01,2013-10-29 22:48:00,
2013-10-29 18:53:00,36.2,28.4,30.32,SE,144,1.0,2.0,73,0.00,,OVC036,0.00,VWS V14.01,2013-10-29 22:53:00,
2013-10-29 18:58:00,36.1,28.3,30.32,SE,135,2.0,2.0,73,0.00,,OVC036,0.00,VWS V14.01,2013-10-29 22:58:00,
2013-10-29 19:03:00,36.1,28.3,30.32,SW,214,1.0,1.0,73,0.00,,OVC095,0.00,VWS V14.01,2013-10-29 23:03:00,
2013-10-29 19:08:00,36.0,28.2,30.32,SE,138,2.0,3.0,73,0.00,,OVC095,0.00,VWS V14.01,2013-10-29 23:08:00,
2013-10-29 19:13:00,36.0,28.2,30.32,SE,133,2.0,3.0,73,0.00,,OVC095,0.00,VWS V14.01,2013-10-29 23:13:00,
2013-10-29 19:18:00,35.9,28.1,30.32,SE,126,2.0,3.0,73,0.00,,OVC095,0.00,VWS V14.01,2013-10-29 23:18:00,
2013-10-29 19:23:00,35.9,28.1,30.32,South,169,1.0,1.0,73,0.00,,OVC095,0.00,VWS V14.01,2013-10-29 23:23:00,
2013-10-29 19:28:00,35.9,28.1,30.31,SE,127,2.0,2.0,73,0.00,,OVC095,0.00,VWS V14.01,2013-10-29 23:28:00,
2013-10-29 19:33:00,35.9,28.4,30.31,SE,130,1.0,2.0,74,0.00,,OVC095,0.00,VWS V14.01,2013-10-29 23:33:00,
2013-10-29 19:38:00,35.9,28.4,30.31,SE,137,1.0,1.0,74,0.00,,OVC095,0.00,VWS V14.01,2013-10-29 23:38:00,
2013-10-29 19:44:00,35.9,28.8,30.31,SSW,204,1.0,1.0,75,0.00,,OVC095,0.00,VWS V14.01,2013-10-29 23:44:00,
2013-10-29 19:48:00,35.9,28.8,30.31,SW,215,1.0,2.0,75,0.00,,OVC095,0.00,VWS V14.01,2013-10-29 23:48:00,
2013-10-29 19:54:00,35.9,28.8,30.31,SSW,205,2.0,3.0,75,0.00,,OVC095,0.00,VWS V14.01,2013-10-29 23:54:00,
2013-10-29 19:59:00,35.9,29.1,30.31,SW,219,3.0,3.0,76,0.00,,OVC095,0.00,VWS V14.01,2013-10-29 23:59:00,
2013-10-29 20:04:00,35.8,29.3,30.31,WSW,245,3.0,4.0,77,0.00,,OVC090,0.00,VWS V14.01,2013-10-30 00:04:00,
2013-10-29 20:09:00,35.7,29.5,30.31,SW,217,2.0,3.0,78,0.00,,OVC090,0.00,VWS V14.01,2013-10-30 00:09:00,
2013-10-29 20:14:00,35.6,29.7,30.30,SE,140,0.0,1.0,79,0.00,,OVC090,0.00,VWS V14.01,2013-10-30 00:14:00,
2013-10-29 20:19:00,35.5,29.6,30.30,SW,223,2.0,3.0,79,0.00,,OVC090,0.00,VWS V14.01,2013-10-30 00:19:00,
2013-10-29 20:24:00,35.3,30.1,30.30,South,177,0.0,1.0,81,0.00,,OVC090,0.00,VWS V14.01,2013-10-30 00:24:00,
2013-10-29 20:29:00,35.1,30.2,30.30,SSE,163,2.0,3.0,82,0.00,,OVC090,0.00,VWS V14.01,2013-10-30 00:29:00,
2013-10-29 20:34:00,35.0,30.4,30.30,SE,143,1.0,2.0,83,0.00,,OVC090,0.00,VWS V14.01,2013-10-30 00:34:00,
2013-10-29 20:39:00,34.8,30.5,30.30,SE,142,2.0,2.0,84,0.00,,OVC090,0.00,VWS V14.01,2013-10-30 00:39:00,
2013-10-29 20:44:00,34.7,30.7,30.30,SE,146,2.0,2.0,85,0.00,,OVC090,0.00,VWS V14.01,2013-10-30 00:44:00,
2013-10-29 20:49:00,34.5,30.8,30.30,SE,145,1.0,1.0,86,0.00,,OVC090,0.00,VWS V14.01,2013-10-30 00:49:00,
2013-10-29 20:54:00,34.4,30.6,30.30,SE,141,1.0,2.0,86,0.00,,OVC090,0.00,VWS V14.01,2013-10-30 00:54:00,
2013-10-29 20:59:00,34.3,30.8,30.29,SSE,148,0.0,2.0,87,0.00,,OVC090,0.00,VWS V14.01,2013-10-30 00:59:00,
2013-10-29 21:04:00,34.3,30.8,30.29,SE,141,1.0,1.0,87,0.00,,OVC080,0.00,VWS V14.01,2013-10-30 01:04:00,
2013-10-29 21:09:00,34.2,31.0,30.29,SE,144,1.0,1.0,88,0.00,,OVC080,0.00,VWS V14.01,2013-10-30 01:09:00,
2013-10-29 21:14:00,34.1,30.9,30.29,SSE,157,1.0,1.0,88,0.00,,OVC080,0.00,VWS V14.01,2013-10-30 01:14:00,
2013-10-29 21:19:00,34.1,30.9,30.28,SE,139,1.0,2.0,88,0.00,,OVC080,0.00,VWS V14.01,2013-10-30 01:19:00,
2013-10-29 21:24:00,34.0,31.1,30.28,SE,134,2.0,2.0,89,0.00,,OVC080,0.00,VWS V14.01,2013-10-30 01:24:00,
2013-10-29 21:29:00,34.0,31.1,30.28,SE,130,0.0,1.0,89,0.00,,OVC080,0.00,VWS V14.01,2013-10-30 01:29:00,
2013-10-29 21:34:00,34.1,31.2,30.27,SE,136,2.0,2.0,89,0.00,,OVC080,0.00,VWS V14.01,2013-10-30 01:34:00,
2013-10-29 21:39:00,34.1,31.2,30.28,SE,138,2.0,2.0,89,0.00,,OVC080,0.00,VWS V14.01,2013-10-30 01:39:00,
2013-10-29 21:44:00,34.2,31.6,30.28,SSE,154,2.0,2.0,90,0.00,,OVC080,0.00,VWS V14.01,2013-10-30 01:44:00,
2013-10-29 21:49:00,34.2,31.6,30.27,South,181,2.0,4.0,90,0.00,,OVC080,0.00,VWS V14.01,2013-10-30 01:49:00,
2013-10-29 21:54:00,34.3,31.7,30.27,SE,138,2.0,3.0,90,0.00,,OVC080,0.00,VWS V14.01,2013-10-30 01:54:00,
2013-10-29 21:59:00,34.3,31.7,30.27,SSE,162,1.0,2.0,90,0.00,,OVC080,0.00,VWS V14.01,2013-10-30 01:59:00,
2013-10-29 22:04:00,34.4,31.8,30.26,SSW,200,1.0,2.0,90,0.00,,,0.00,VWS V14.01,2013-10-30 02:04:00,
2013-10-29 22:09:00,34.4,31.8,30.26,SE,130,1.0,2.0,90,0.00,,,0.00,VWS V14.01,2013-10-30 02:09:00,
2013-10-29 22:14:00,34.4,31.8,30.26,South,180,1.0,3.0,90,0.00,,,0.00,VWS V14.01,2013-10-30 02:14:00,
2013-10-29 22:19:00,34.5,31.9,30.26,SSE,161,1.0,1.0,90,0.00,,,0.00,VWS V14.01,2013-10-30 02:19:00,
2013-10-29 22:24:00,34.5,31.9,30.26,SE,139,1.0,1.0,90,0.00,,,0.00,VWS V14.01,2013-10-30 02:24:00,
2013-10-29 22:29:00,34.5,31.9,30.26,SE,142,0.0,1.0,90,0.00,,,0.00,VWS V14.01,2013-10-30 02:29:00,
2013-10-29 22:34:00,34.5,32.2,30.26,SE,139,1.0,1.0,91,0.00,,,0.00,VWS V14.01,2013-10-30 02:34:00,
2013-10-29 22:39:00,34.6,32.2,30.26,SE,135,3.0,3.0,91,0.00,,,0.00,VWS V14.01,2013-10-30 02:39:00,
2013-10-29 22:44:00,34.6,32.2,30.26,SE,133,2.0,2.0,91,0.00,,,0.00,VWS V14.01,2013-10-30 02:44:00,
2013-10-29 22:49:00,34.7,32.3,30.26,SSE,150,1.0,1.0,91,0.00,,,0.00,VWS V14.01,2013-10-30 02:49:00,
2013-10-29 22:54:00,34.7,32.3,30.26,SE,145,1.0,3.0,91,0.00,,,0.00,VWS V14.01,2013-10-30 02:54:00,
2013-10-29 22:59:00,34.7,32.3,30.26,SE,140,1.0,2.0,91,0.00,,,0.00,VWS V14.01,2013-10-30 02:59:00,
2013-10-29 23:04:00,34.7,32.3,30.25,SE,129,1.0,3.0,91,0.00,,,0.00,VWS V14.01,2013-10-30 03:04:00,
2013-10-29 23:09:00,34.7,32.3,30.25,ESE,117,2.0,3.0,91,0.00,,,0.00,VWS V14.01,2013-10-30 03:09:00,
2013-10-29 23:14:00,34.7,32.3,30.25,SE,127,2.0,2.0,91,0.00,,,0.00,VWS V14.01,2013-10-30 03:14:00,
2013-10-29 23:19:00,34.7,32.3,30.25,SE,125,2.0,2.0,91,0.00,,,0.00,VWS V14.01,2013-10-30 03:19:00,
2013-10-29 23:24:00,34.7,32.3,30.25,SE,134,2.0,2.0,91,0.00,,,0.00,VWS V14.01,2013-10-30 03:24:00,
2013-10-29 23:29:00,34.7,32.3,30.25,SE,134,0.0,1.0,91,0.00,,,0.00,VWS V14.01,2013-10-30 03:29:00,
2013-10-29 23:34:00,34.7,32.3,30.25,SE,128,1.0,1.0,91,0.00,,,0.00,VWS V14.01,2013-10-30 03:34:00,
2013-10-29 23:40:00,34.7,32.3,30.25,SE,125,1.0,2.0,91,0.00,,,0.00,VWS V14.01,2013-10-30 03:40:00,
2013-10-29 23:44:00,34.6,32.2,30.25,ESE,121,1.0,2.0,91,0.00,,,0.00,VWS V14.01,2013-10-30 03:44:00,
2013-10-29 23:49:00,34.6,32.2,30.25,ESE,121,1.0,1.0,91,0.00,,,0.00,VWS V14.01,2013-10-30 03:49:00,
2013-10-29 23:55:00,34.6,32.2,30.25,SE,128,1.0,1.0,91,0.00,,,0.00,VWS V14.01,2013-10-30 03:55:00,